Location: Unspecified
(0.0000°N, 0.0000°E)
Time: 06:10:40
(UTC+00:00)

Tiros 1 despin weight - Pass Details

Date: 05 October 2020
Orbit: 594 x 641 km, 48.2° (Epoch: 28 October)

Event Time Altitude Azimuth Distance (km) Brightness Sun altitude
Rises 05:30:36 0° 206° (SSW) 2,838 ? -4.4°
Reaches altitude 10° 05:33:01 10° 198° (SSW) 1,929 ? -3.8°
Maximum altitude 05:37:09 39° 129° (SE) 896 ? -2.8°
Drops below altitude 10° 05:41:14 10° 60° (ENE) 1,914 ? -1.8°
Sets 05:43:37 0° 52° (NE) 2,813 ? -1.2°
